Whidbey Island, WA
on Thursday, January 10, 2013

Thursday
Previous Day Next Day
Daily Summary
 ActualAverageRecord
Temperature
Mean Temperature °F °F  
Max Temperature 41°F 44°F 54°F (2014)
Min Temperature 32°F 34°F 19°F (1998)
Degree Days
Heating Degree Days 28    
Moisture
Dew Point 30°F   
Average Humidity 78    
Maximum Humidity 93    
Minimum Humidity 57    
Precipitation
Precipitation 0.06 in in in ()
Wind
Wind Speed 8 mph   
Max Wind Speed 18 mph   
Max Gust Speed 28 mph   
Visibility 9 miles   
Events Rain   
Averages and records for this station are not official NWS values.
Key: T is trace of precipitation, MM is missing value
Source: NWS Daily Summary
Seasonal Weather Averages
Time(PST)TemperatureDew PointHumidity Pressure Visibility Wind DirectionWind SpeedGust SpeedPrecipitationEvents Conditions
12:56 AM 35.1°F 32.0°F 89% 29.96 in 10.0 miles South 5.8 mph - N/A   Scattered Clouds
1:56 AM 34.0°F 30.9°F 89% 29.98 in 10.0 miles South 6.9 mph - N/A   Scattered Clouds
2:56 AM 34.0°F 30.9°F 89% 30.00 in 10.0 miles South 9.2 mph - N/A   Scattered Clouds
3:56 AM 36.0°F 32.0°F 86% 30.00 in 10.0 miles South 6.9 mph - N/A   Mostly Cloudy
4:56 AM 36.0°F 33.1°F 89% 30.00 in 10.0 miles SSW 4.6 mph - N/A   Mostly Cloudy
5:24 AM 37.4°F 33.8°F 87% 30.00 in 10.0 miles SSW 3.5 mph - 0.00 in Rain Light Rain
5:56 AM 37.0°F 34.0°F 89% 30.02 in 5.0 miles East 3.5 mph - 0.01 in Rain Light Rain
6:56 AM 36.0°F 33.1°F 89% 30.04 in 7.0 miles Calm Calm - 0.04 in Rain Light Rain
7:18 AM 35.6°F 33.8°F 93% 30.03 in 8.0 miles ESE 3.5 mph - 0.00 in   Overcast
7:56 AM 36.0°F 33.1°F 89% 30.06 in 8.0 miles SE 3.5 mph - 0.00 in   Overcast
8:56 AM 37.0°F 34.0°F 89% 30.08 in 8.0 miles ESE 3.5 mph - N/A   Overcast
9:42 AM 39.2°F 35.6°F 87% 30.07 in 10.0 miles NW 9.2 mph - N/A   Overcast
9:56 AM 39.9°F 35.1°F 83% 30.09 in 9.0 miles NW 11.5 mph - N/A   Overcast
10:27 AM 39.2°F 35.6°F 87% 30.07 in 9.0 miles NNW 17.3 mph 23.0 mph 0.00 in Rain Light Rain
10:56 AM 37.9°F 34.0°F 86% 30.08 in 7.0 miles NW 11.5 mph - 0.01 in Rain Light Rain
11:17 AM 39.2°F 35.6°F 87% 30.06 in 9.0 miles NW 15.0 mph - 0.00 in   Mostly Cloudy
11:56 AM 39.0°F 34.0°F 82% 30.07 in 8.0 miles NNW 16.1 mph - 0.00 in   Overcast
12:56 PM 41.0°F 35.1°F 79% 30.07 in 9.0 miles North 8.1 mph - N/A   Mostly Cloudy
1:56 PM 39.9°F 28.9°F 65% 30.08 in 10.0 miles North 18.4 mph 27.6 mph N/A   Mostly Cloudy
2:56 PM 41.0°F 27.0°F 57% 30.09 in 10.0 miles North 18.4 mph 24.2 mph N/A   Scattered Clouds
3:56 PM 39.0°F 27.0°F 62% 30.10 in 10.0 miles NNW 15.0 mph - N/A   Scattered Clouds
4:56 PM 39.0°F 28.9°F 67% 30.10 in 10.0 miles North 13.8 mph - N/A   Mostly Cloudy
5:56 PM 37.9°F 25.0°F 60% 30.10 in 10.0 miles North 16.1 mph - N/A   Scattered Clouds
6:56 PM 37.0°F 24.1°F 59% 30.11 in 10.0 miles North 11.5 mph - N/A   Partly Cloudy
7:56 PM 36.0°F 24.1°F 62% 30.12 in 10.0 miles North 9.2 mph - N/A   Partly Cloudy
8:56 PM 35.1°F 21.9°F 59% 30.12 in 10.0 miles North 11.5 mph - N/A   Partly Cloudy
9:56 PM 36.0°F 23.0°F 59% 30.13 in 10.0 miles North 16.1 mph 21.9 mph N/A   Partly Cloudy
10:56 PM 33.1°F 21.9°F 64% 30.14 in 10.0 miles North 9.2 mph - N/A   Partly Cloudy
11:56 PM 32.0°F 21.9°F 66% 30.15 in 10.0 miles North 8.1 mph - N/A   Partly Cloudy
Moon Phase
Jan. 10 Jan. 11 Jan. 18 Jan. 26 Feb. 03
Sunrise:07:59 AM (PST) Moon Rise:06:44 AM (PST)1/10
Sunset:04:37 PM (PST) Moon Set:03:52 PM (PST)1/10

Copyright © 2014 The Weather Underground, Inc.